This is the latest recevied weather packets stored in our database for station/object WK7G. If no packets are shown the sender has not sent any weather packets the latest 10 day(s).
| Time | Temp. | Humidity | Pressure | Rain* | Wind** | Luminosity | Snow |
|---|---|---|---|---|---|---|---|
| 1777774668 | 12.22° C | 40% | 1010.7 hPa | 0 mm | - | 6 W/m² | - |
| 1777774364 | 13.33° C | 40% | 1010.9 hPa | 0 mm | - | 10 W/m² | - |
| 1777774062 | 13.89° C | 38% | 1011 hPa | 0 mm | - | 14 W/m² | - |
| 1777773759 | 13.89° C | 40% | 1011 hPa | 0 mm | - | 19 W/m² | - |
| 1777773455 | 13.89° C | 41% | 1010.9 hPa | 0 mm | - | 22 W/m² | - |
| 1777773152 | 13.89° C | 40% | 1010.6 hPa | 0 mm | - | 25 W/m² | - |
| 1777772848 | 13.89° C | 42% | 1010.9 hPa | 0 mm | - | 29 W/m² | - |
| 1777772547 | 14.44° C | 39% | 1010.7 hPa | 0 mm | - | 33 W/m² | - |
| 1777772243 | 15.56° C | 36% | 1010.6 hPa | 0 mm | - | 38 W/m² | - |
| 1777771941 | 15.56° C | 34% | 1010.6 hPa | 0 mm | - | 43 W/m² | - |
| 1777771639 | 15.56° C | 33% | 1010.4 hPa | 0 mm | - | 55 W/m² | - |
| 1777771335 | 16.11° C | 33% | 1010.6 hPa | 0 mm | - | 62 W/m² | - |
| 1777771032 | 16.11° C | 36% | 1010.7 hPa | 0 mm | - | 72 W/m² | - |
| 1777770729 | 16.67° C | 34% | 1011 hPa | 0 mm | - | 90 W/m² | - |
| 1777770425 | 16.67° C | 31% | 1010.6 hPa | 0 mm | - | 123 W/m² | - |
| 1777770122 | 16.67° C | 32% | 1010.5 hPa | 0 mm | - | 137 W/m² | - |
| 1777769819 | 16.67° C | 33% | 1010.6 hPa | 0 mm | - | 142 W/m² | - |
| 1777769516 | 16.67° C | 33% | 1010.7 hPa | 0 mm | - | 154 W/m² | - |
| 1777769213 | 17.22° C | 32% | 1010.4 hPa | 0 mm | - | 163 W/m² | - |
| 1777768911 | 17.22° C | 30% | 1010.7 hPa | 0 mm | - | 191 W/m² | - |
| 1777768608 | 17.22° C | 29% | 1010.9 hPa | 0 mm | - | 247 W/m² | - |
| 1777768305 | 17.22° C | 32% | 1010.5 hPa | 0 mm | - | 278 W/m² | - |
| 1777768001 | 17.22° C | 35% | 1010.5 hPa | 0 mm | - | 204 W/m² | - |
| 1777767698 | 17.22° C | 34% | 1010.9 hPa | 0 mm | - | 183 W/m² | - |
| 1777767394 | 16.67° C | 31% | 1010.6 hPa | 0 mm | - | 163 W/m² | - |
* Rain latest hour (hover to see other rain measurements)
** Current wind speed in m/s (hover to see current wind gust speed)